Year,Month,Day,Hour,Minute,Value (Times are PST for temperature in C)
2013,07,16,00,00,16.70
2013,07,16,00,01,16.70
2013,07,16,00,02,16.70
2013,07,16,00,03,16.70
2013,07,16,00,04,16.60
2013,07,16,00,05,16.60
2013,07,16,00,06,16.60
2013,07,16,00,07,16.60
2013,07,16,00,08,16.60
2013,07,16,00,09,16.60
2013,07,16,00,10,16.50
2013,07,16,00,11,16.50
2013,07,16,00,12,16.50
2013,07,16,00,13,16.40
2013,07,16,00,14,16.40
2013,07,16,00,15,16.40
2013,07,16,00,16,16.40
2013,07,16,00,17,16.40
2013,07,16,00,18,16.30
2013,07,16,00,19,16.30
2013,07,16,00,20,16.30
2013,07,16,00,21,16.30
2013,07,16,00,22,16.30
2013,07,16,00,23,16.30
2013,07,16,00,24,16.30
2013,07,16,00,25,16.20
2013,07,16,00,26,16.20
2013,07,16,00,27,16.20
2013,07,16,00,28,16.20
2013,07,16,00,29,16.20
2013,07,16,00,30,16.20
2013,07,16,00,31,16.20
2013,07,16,00,32,16.10
2013,07,16,00,33,16.10
2013,07,16,00,34,16.10
2013,07,16,00,35,16.10
2013,07,16,00,36,16.10
2013,07,16,00,37,16.10
2013,07,16,00,38,16.00
2013,07,16,00,39,16.00
2013,07,16,00,40,16.00
2013,07,16,00,41,16.00
2013,07,16,00,42,16.00
2013,07,16,00,43,16.00
2013,07,16,00,44,16.00
2013,07,16,00,45,15.90
2013,07,16,00,46,15.90
2013,07,16,00,47,15.90
2013,07,16,00,48,15.90
2013,07,16,00,49,15.90
2013,07,16,00,50,15.90
2013,07,16,00,51,15.90
2013,07,16,00,52,15.90
2013,07,16,00,53,15.80
2013,07,16,00,54,15.80
2013,07,16,00,55,15.80
2013,07,16,00,56,15.80
2013,07,16,00,57,15.80
2013,07,16,00,58,15.80
2013,07,16,00,59,15.80
2013,07,16,01,00,15.80
2013,07,16,01,01,15.70
2013,07,16,01,02,15.70
2013,07,16,01,03,15.70
2013,07,16,01,04,15.60
2013,07,16,01,05,15.60
2013,07,16,01,06,15.60
2013,07,16,01,07,15.50
2013,07,16,01,08,15.50
2013,07,16,01,09,15.50
2013,07,16,01,10,15.50
2013,07,16,01,11,15.40
2013,07,16,01,12,15.40
2013,07,16,01,13,15.40
2013,07,16,01,14,15.40
2013,07,16,01,15,15.40
2013,07,16,01,16,15.40
2013,07,16,01,17,15.40
2013,07,16,01,18,15.40
2013,07,16,01,19,15.30
2013,07,16,01,20,15.30
2013,07,16,01,21,15.30
2013,07,16,01,22,15.30
2013,07,16,01,23,15.30
2013,07,16,01,24,15.30
2013,07,16,01,25,15.30
2013,07,16,01,26,15.30
2013,07,16,01,27,15.30
2013,07,16,01,28,15.30
2013,07,16,01,29,15.30
2013,07,16,01,30,15.30
2013,07,16,01,31,15.30
2013,07,16,01,32,15.30
2013,07,16,01,33,15.30
2013,07,16,01,34,15.30
2013,07,16,01,35,15.30
2013,07,16,01,36,15.30
2013,07,16,01,37,15.30
2013,07,16,01,38,15.30
2013,07,16,01,39,15.30
2013,07,16,01,40,15.20
2013,07,16,01,41,15.20
2013,07,16,01,42,15.20
2013,07,16,01,43,15.20
2013,07,16,01,44,15.20
2013,07,16,01,45,15.20
2013,07,16,01,46,15.20
2013,07,16,01,47,15.10
2013,07,16,01,48,15.10
2013,07,16,01,49,15.10
2013,07,16,01,50,15.10
2013,07,16,01,51,15.10
2013,07,16,01,52,15.10
2013,07,16,01,53,15.10
2013,07,16,01,54,15.10
2013,07,16,01,55,15.10
2013,07,16,01,56,15.10
2013,07,16,01,57,15.10
2013,07,16,01,58,15.10
2013,07,16,01,59,15.20
2013,07,16,02,00,15.20
2013,07,16,02,01,15.20
2013,07,16,02,02,15.20
2013,07,16,02,03,15.20
2013,07,16,02,04,15.20
2013,07,16,02,05,15.20
2013,07,16,02,06,15.20
2013,07,16,02,07,15.20
2013,07,16,02,08,15.20
2013,07,16,02,09,15.20
2013,07,16,02,10,15.20
2013,07,16,02,11,15.10
2013,07,16,02,12,15.10
2013,07,16,02,13,15.10
2013,07,16,02,14,15.10
2013,07,16,02,15,15.10
2013,07,16,02,16,15.10
2013,07,16,02,17,15.10
2013,07,16,02,18,15.00
2013,07,16,02,19,15.00
2013,07,16,02,20,15.00
2013,07,16,02,21,14.90
2013,07,16,02,22,14.90
2013,07,16,02,23,14.90
2013,07,16,02,24,14.90
2013,07,16,02,25,14.90
2013,07,16,02,26,14.90
2013,07,16,02,27,14.80
2013,07,16,02,28,14.80
2013,07,16,02,29,14.80
2013,07,16,02,30,14.80
2013,07,16,02,31,14.80
2013,07,16,02,32,14.80
2013,07,16,02,33,14.80
2013,07,16,02,34,14.80
2013,07,16,02,35,14.80
2013,07,16,02,36,14.80
2013,07,16,02,37,14.70
2013,07,16,02,38,14.70
2013,07,16,02,39,14.70
2013,07,16,02,40,14.70
2013,07,16,02,41,14.70
2013,07,16,02,42,14.60
2013,07,16,02,43,14.60
2013,07,16,02,44,14.60
2013,07,16,02,45,14.60
2013,07,16,02,46,14.60
2013,07,16,02,47,14.60
2013,07,16,02,48,14.60
2013,07,16,02,49,14.50
2013,07,16,02,50,14.50
2013,07,16,02,51,14.50
2013,07,16,02,52,14.50
2013,07,16,02,53,14.50
2013,07,16,02,54,14.40
2013,07,16,02,55,14.40
2013,07,16,02,56,14.40
2013,07,16,02,57,14.40
2013,07,16,02,58,14.40
2013,07,16,02,59,14.40
2013,07,16,03,00,14.40
2013,07,16,03,01,14.40
2013,07,16,03,02,14.40
2013,07,16,03,03,14.40
2013,07,16,03,04,14.40
2013,07,16,03,05,14.30
2013,07,16,03,06,14.30
2013,07,16,03,07,14.30
2013,07,16,03,08,14.30
2013,07,16,03,09,14.30
2013,07,16,03,10,14.20
2013,07,16,03,11,14.20
2013,07,16,03,12,14.20
2013,07,16,03,13,14.20
2013,07,16,03,14,14.20
2013,07,16,03,15,14.20
2013,07,16,03,16,14.20
2013,07,16,03,17,14.20
2013,07,16,03,18,14.20
2013,07,16,03,19,14.20
2013,07,16,03,20,14.20
2013,07,16,03,21,14.20
2013,07,16,03,22,14.10
2013,07,16,03,23,14.20
2013,07,16,03,24,14.20
2013,07,16,03,25,14.20
2013,07,16,03,26,14.20
2013,07,16,03,27,14.30
2013,07,16,03,28,14.30
2013,07,16,03,29,14.30
2013,07,16,03,30,14.30
2013,07,16,03,31,14.30
2013,07,16,03,32,14.30
2013,07,16,03,33,14.40
2013,07,16,03,34,14.40
2013,07,16,03,35,14.40
2013,07,16,03,36,14.40
2013,07,16,03,37,14.40
2013,07,16,03,38,14.40
2013,07,16,03,39,14.40
2013,07,16,03,40,14.40
2013,07,16,03,41,14.40
2013,07,16,03,42,14.40
2013,07,16,03,43,14.40
2013,07,16,03,44,14.40
2013,07,16,03,45,14.40
2013,07,16,03,46,14.40
2013,07,16,03,47,14.40
2013,07,16,03,48,14.40
2013,07,16,03,49,14.40
2013,07,16,03,50,14.40
2013,07,16,03,51,14.30
2013,07,16,03,52,14.30
2013,07,16,03,53,14.30
2013,07,16,03,54,14.30
2013,07,16,03,55,14.30
2013,07,16,03,56,14.30
2013,07,16,03,57,14.30
2013,07,16,03,58,14.20
2013,07,16,03,59,14.20
2013,07,16,04,00,14.20
2013,07,16,04,01,14.20
2013,07,16,04,02,14.20
2013,07,16,04,03,14.10
2013,07,16,04,04,14.10
2013,07,16,04,05,14.10
2013,07,16,04,06,14.10
2013,07,16,04,07,14.10
2013,07,16,04,08,14.00
2013,07,16,04,09,14.00
2013,07,16,04,10,14.00
2013,07,16,04,11,14.00
2013,07,16,04,12,13.90
2013,07,16,04,13,13.90
2013,07,16,04,14,13.90
2013,07,16,04,15,13.90
2013,07,16,04,16,13.90
2013,07,16,04,17,13.80
2013,07,16,04,18,13.80
2013,07,16,04,19,13.80
2013,07,16,04,20,13.80
2013,07,16,04,21,13.80
2013,07,16,04,22,13.80
2013,07,16,04,23,13.80
2013,07,16,04,24,13.80
2013,07,16,04,25,13.80
2013,07,16,04,26,13.70
2013,07,16,04,27,13.70
2013,07,16,04,28,13.70
2013,07,16,04,29,13.70
2013,07,16,04,30,13.70
2013,07,16,04,31,13.70
2013,07,16,04,32,13.70
2013,07,16,04,33,13.70
2013,07,16,04,34,13.70
2013,07,16,04,35,13.70
2013,07,16,04,36,13.70
2013,07,16,04,37,13.70
2013,07,16,04,38,13.70
2013,07,16,04,39,13.70
2013,07,16,04,40,13.70
2013,07,16,04,41,13.70
2013,07,16,04,42,13.70
2013,07,16,04,43,13.70
2013,07,16,04,44,13.70
2013,07,16,04,45,13.70
2013,07,16,04,46,13.70
2013,07,16,04,47,13.70
2013,07,16,04,48,13.70
2013,07,16,04,49,13.70
2013,07,16,04,50,13.70
2013,07,16,04,51,13.60
2013,07,16,04,52,13.60
2013,07,16,04,53,13.60
2013,07,16,04,54,13.60
2013,07,16,04,55,13.70
2013,07,16,04,56,13.70
2013,07,16,04,57,13.70
2013,07,16,04,58,13.80
2013,07,16,04,59,13.80
2013,07,16,05,00,13.90
2013,07,16,05,01,13.90
2013,07,16,05,02,14.00
2013,07,16,05,03,14.00
2013,07,16,05,04,14.00
2013,07,16,05,05,14.10
2013,07,16,05,06,14.10
2013,07,16,05,07,14.10
2013,07,16,05,08,14.10
2013,07,16,05,09,14.10
2013,07,16,05,10,14.00
2013,07,16,05,11,13.90
2013,07,16,05,12,13.90
2013,07,16,05,13,13.80
2013,07,16,05,14,13.70
2013,07,16,05,15,13.70
2013,07,16,05,16,13.70
2013,07,16,05,17,13.60
2013,07,16,05,18,13.60
2013,07,16,05,19,13.60
2013,07,16,05,20,13.50
2013,07,16,05,21,13.50
2013,07,16,05,22,13.50
2013,07,16,05,23,13.40
2013,07,16,05,24,13.40
2013,07,16,05,25,13.40
2013,07,16,05,26,13.40
2013,07,16,05,27,13.30
2013,07,16,05,28,13.30
2013,07,16,05,29,13.30
2013,07,16,05,30,13.40
2013,07,16,05,31,13.40
2013,07,16,05,32,13.40
2013,07,16,05,33,13.40
2013,07,16,05,34,13.40
2013,07,16,05,35,13.40
2013,07,16,05,36,13.40
2013,07,16,05,37,13.40
2013,07,16,05,38,13.40
2013,07,16,05,39,13.40
2013,07,16,05,40,13.40
2013,07,16,05,41,13.40
2013,07,16,05,42,13.40
2013,07,16,05,43,13.40
2013,07,16,05,44,13.40
2013,07,16,05,45,13.40
2013,07,16,05,46,13.40
2013,07,16,05,47,13.40
2013,07,16,05,48,13.40
2013,07,16,05,49,13.40
2013,07,16,05,50,13.40
2013,07,16,05,51,13.40
2013,07,16,05,52,13.40
2013,07,16,05,53,13.50
2013,07,16,05,54,13.50
2013,07,16,05,55,13.50
2013,07,16,05,56,13.50
2013,07,16,05,57,13.60
2013,07,16,05,58,13.60
2013,07,16,05,59,13.60
2013,07,16,06,00,13.60
2013,07,16,06,01,13.70
2013,07,16,06,02,13.70
2013,07,16,06,03,13.70
2013,07,16,06,04,13.80
2013,07,16,06,05,13.80
2013,07,16,06,06,13.90
2013,07,16,06,07,13.90
2013,07,16,06,08,14.00
2013,07,16,06,09,14.00
2013,07,16,06,10,14.10
2013,07,16,06,11,14.20
2013,07,16,06,12,14.20
2013,07,16,06,13,14.20
2013,07,16,06,14,14.30
2013,07,16,06,15,14.30
2013,07,16,06,16,14.40
2013,07,16,06,17,14.40
2013,07,16,06,18,14.50
2013,07,16,06,19,14.50
2013,07,16,06,20,14.60
2013,07,16,06,21,14.60
2013,07,16,06,22,14.70
2013,07,16,06,23,14.70
2013,07,16,06,24,14.80
2013,07,16,06,25,14.90
2013,07,16,06,26,14.90
2013,07,16,06,27,15.00
2013,07,16,06,28,15.10
2013,07,16,06,29,15.10
2013,07,16,06,30,15.20
2013,07,16,06,31,15.20
2013,07,16,06,32,15.30
2013,07,16,06,33,15.30
2013,07,16,06,34,15.30
2013,07,16,06,35,15.40
2013,07,16,06,36,15.40
2013,07,16,06,37,15.50
2013,07,16,06,38,15.50
2013,07,16,06,39,15.60
2013,07,16,06,40,15.70
2013,07,16,06,41,15.70
2013,07,16,06,42,15.80
2013,07,16,06,43,15.80
2013,07,16,06,44,15.90
2013,07,16,06,45,15.90
2013,07,16,06,46,16.00
2013,07,16,06,47,16.00
2013,07,16,06,48,16.10
2013,07,16,06,49,16.10
2013,07,16,06,50,16.20
2013,07,16,06,51,16.30
2013,07,16,06,52,16.30
2013,07,16,06,53,16.40
2013,07,16,06,54,16.40
2013,07,16,06,55,16.50
2013,07,16,06,56,16.60
2013,07,16,06,57,16.70
2013,07,16,06,58,16.70
2013,07,16,06,59,16.70
2013,07,16,07,00,16.80
2013,07,16,07,01,16.80
2013,07,16,07,02,16.90
2013,07,16,07,03,16.90
2013,07,16,07,04,17.00
2013,07,16,07,05,17.10
2013,07,16,07,06,17.10
2013,07,16,07,07,17.20
2013,07,16,07,08,17.30
2013,07,16,07,09,17.30
2013,07,16,07,10,17.40
2013,07,16,07,11,17.40
2013,07,16,07,12,17.50
2013,07,16,07,13,17.50
2013,07,16,07,14,17.60
2013,07,16,07,15,17.60
2013,07,16,07,16,17.60
2013,07,16,07,17,17.70
2013,07,16,07,18,17.80
2013,07,16,07,19,17.80
2013,07,16,07,20,17.80
2013,07,16,07,21,17.80
2013,07,16,07,22,17.80
2013,07,16,07,23,17.90
2013,07,16,07,24,17.90
2013,07,16,07,25,17.90
2013,07,16,07,26,17.90
2013,07,16,07,27,18.00
2013,07,16,07,28,18.00
2013,07,16,07,29,18.10
2013,07,16,07,30,18.20
2013,07,16,07,31,18.30
2013,07,16,07,32,18.40
2013,07,16,07,33,18.40
2013,07,16,07,34,18.50
2013,07,16,07,35,18.60
2013,07,16,07,36,18.70
2013,07,16,07,37,18.70
2013,07,16,07,38,18.80
2013,07,16,07,39,18.80
2013,07,16,07,40,18.80
2013,07,16,07,41,18.80
2013,07,16,07,42,18.80
2013,07,16,07,43,18.90
2013,07,16,07,44,18.90
2013,07,16,07,45,18.90
2013,07,16,07,46,18.90
2013,07,16,07,47,19.00
2013,07,16,07,48,19.00
2013,07,16,07,49,19.00
2013,07,16,07,50,19.10
2013,07,16,07,51,19.10
2013,07,16,07,52,19.10
2013,07,16,07,53,19.10
2013,07,16,07,54,19.20
2013,07,16,07,55,19.20
2013,07,16,07,56,19.20
2013,07,16,07,57,19.30
2013,07,16,07,58,19.30
2013,07,16,07,59,19.30
2013,07,16,08,00,19.40
2013,07,16,08,01,19.40
2013,07,16,08,02,19.40
2013,07,16,08,03,19.50
2013,07,16,08,04,19.60
2013,07,16,08,05,19.60
2013,07,16,08,06,19.70
2013,07,16,08,07,19.80
2013,07,16,08,08,19.80
2013,07,16,08,09,19.90
2013,07,16,08,10,20.00
2013,07,16,08,11,20.00
2013,07,16,08,12,20.10
2013,07,16,08,13,20.20
2013,07,16,08,14,20.20
2013,07,16,08,15,20.30
2013,07,16,08,16,20.40
2013,07,16,08,17,20.40
2013,07,16,08,18,20.50
2013,07,16,08,19,20.60
2013,07,16,08,20,20.80
2013,07,16,08,21,20.90
2013,07,16,08,22,21.10
2013,07,16,08,23,21.30
2013,07,16,08,24,21.50
2013,07,16,08,25,21.70
2013,07,16,08,26,21.80
2013,07,16,08,27,22.00
2013,07,16,08,28,22.20
2013,07,16,08,29,22.40
2013,07,16,08,30,22.60
2013,07,16,08,31,22.80
2013,07,16,08,32,22.90
2013,07,16,08,33,23.10
2013,07,16,08,34,23.30
2013,07,16,08,35,23.40
2013,07,16,08,36,23.50
2013,07,16,08,37,23.60
2013,07,16,08,38,23.70
2013,07,16,08,39,23.80
2013,07,16,08,40,23.90
2013,07,16,08,41,24.00
2013,07,16,08,42,24.10
2013,07,16,08,43,24.10
2013,07,16,08,44,24.10
2013,07,16,08,45,24.10
2013,07,16,08,46,24.20
2013,07,16,08,47,24.20
2013,07,16,08,48,24.20
2013,07,16,08,49,24.30
2013,07,16,08,50,24.30
2013,07,16,08,51,24.30
2013,07,16,08,52,24.20
2013,07,16,08,53,24.20
2013,07,16,08,54,24.20
2013,07,16,08,55,24.30
2013,07,16,08,56,24.40
2013,07,16,08,57,24.40
2013,07,16,08,58,24.40
2013,07,16,08,59,24.40
2013,07,16,09,00,24.40
2013,07,16,09,01,24.40
2013,07,16,09,02,24.50
2013,07,16,09,03,24.50
2013,07,16,09,04,24.60
2013,07,16,09,05,24.60
2013,07,16,09,06,24.60
2013,07,16,09,07,24.70
2013,07,16,09,08,24.70
2013,07,16,09,09,24.70
2013,07,16,09,10,24.80
2013,07,16,09,11,24.80
2013,07,16,09,12,24.80
2013,07,16,09,13,24.80
2013,07,16,09,14,24.80
2013,07,16,09,15,24.80
2013,07,16,09,16,24.70
2013,07,16,09,17,24.80
2013,07,16,09,18,24.80
2013,07,16,09,19,24.80
2013,07,16,09,20,24.90
2013,07,16,09,21,24.90
2013,07,16,09,22,25.00
2013,07,16,09,23,25.10
2013,07,16,09,24,25.20
2013,07,16,09,25,25.20
2013,07,16,09,26,25.20
2013,07,16,09,27,25.20
2013,07,16,09,28,25.20
2013,07,16,09,29,25.20
2013,07,16,09,30,25.10
2013,07,16,09,31,25.20
2013,07,16,09,32,25.10
2013,07,16,09,33,25.10
2013,07,16,09,34,25.10
2013,07,16,09,35,25.10
2013,07,16,09,36,25.10
2013,07,16,09,37,25.20
2013,07,16,09,38,25.20
2013,07,16,09,39,25.20
2013,07,16,09,40,25.30
2013,07,16,09,41,25.30
2013,07,16,09,42,25.30
2013,07,16,09,43,25.30
2013,07,16,09,44,25.30
2013,07,16,09,45,25.30
2013,07,16,09,46,25.30
2013,07,16,09,47,25.30
2013,07,16,09,48,25.30
2013,07,16,09,49,25.40
2013,07,16,09,50,25.50
2013,07,16,09,51,25.50
2013,07,16,09,52,25.60
2013,07,16,09,53,25.60
2013,07,16,09,54,25.60
2013,07,16,09,55,25.60
2013,07,16,09,56,25.60
2013,07,16,09,57,25.60
2013,07,16,09,58,25.70
2013,07,16,09,59,25.80
2013,07,16,10,00,25.80
2013,07,16,10,01,25.80
2013,07,16,10,02,25.80
2013,07,16,10,03,25.80
2013,07,16,10,04,25.80
2013,07,16,10,05,25.70
2013,07,16,10,06,25.70
2013,07,16,10,07,25.60
2013,07,16,10,08,25.60
2013,07,16,10,09,25.60
2013,07,16,10,10,25.60
2013,07,16,10,11,25.70
2013,07,16,10,12,25.70
2013,07,16,10,13,25.60
2013,07,16,10,14,25.60
2013,07,16,10,15,25.70
2013,07,16,10,16,25.70
2013,07,16,10,17,25.80
2013,07,16,10,18,25.80
2013,07,16,10,19,25.90
2013,07,16,10,20,26.00
2013,07,16,10,21,26.00
2013,07,16,10,22,26.10
2013,07,16,10,23,26.10
2013,07,16,10,24,26.10
2013,07,16,10,25,26.10
2013,07,16,10,26,26.10
2013,07,16,10,27,26.20
2013,07,16,10,28,26.20
2013,07,16,10,29,26.20
2013,07,16,10,30,26.20
2013,07,16,10,31,26.20
2013,07,16,10,32,26.20
2013,07,16,10,33,26.20
2013,07,16,10,34,26.20
2013,07,16,10,35,26.30
2013,07,16,10,36,26.40
2013,07,16,10,37,26.50
2013,07,16,10,38,26.60
2013,07,16,10,39,26.60
2013,07,16,10,40,26.60
2013,07,16,10,41,26.60
2013,07,16,10,42,26.60
2013,07,16,10,43,26.60
2013,07,16,10,44,26.60
2013,07,16,10,45,26.60
2013,07,16,10,46,26.50
2013,07,16,10,47,26.60
2013,07,16,10,48,26.60
2013,07,16,10,49,26.60
2013,07,16,10,50,26.70
2013,07,16,10,51,26.70
2013,07,16,10,52,26.70
2013,07,16,10,53,26.70
2013,07,16,10,54,26.80
2013,07,16,10,55,26.80
2013,07,16,10,56,26.80
2013,07,16,10,57,26.80
2013,07,16,10,58,26.70
2013,07,16,10,59,26.60
2013,07,16,11,00,26.60
2013,07,16,11,01,26.60
2013,07,16,11,02,26.60
2013,07,16,11,03,26.60
2013,07,16,11,04,26.70
2013,07,16,11,05,26.70
2013,07,16,11,06,26.70
2013,07,16,11,07,26.80
2013,07,16,11,08,26.90
2013,07,16,11,09,26.90
2013,07,16,11,10,26.90
2013,07,16,11,11,26.90
2013,07,16,11,12,26.90
2013,07,16,11,13,26.90
2013,07,16,11,14,26.90
2013,07,16,11,15,26.90
2013,07,16,11,16,26.90
2013,07,16,11,17,26.80
2013,07,16,11,18,26.90
2013,07,16,11,19,26.90
2013,07,16,11,20,27.00
2013,07,16,11,21,27.00
2013,07,16,11,22,26.90
2013,07,16,11,23,26.80
2013,07,16,11,24,26.80
2013,07,16,11,25,26.80
2013,07,16,11,26,26.90
2013,07,16,11,27,27.00
2013,07,16,11,28,27.10
2013,07,16,11,29,27.10
2013,07,16,11,30,27.10
2013,07,16,11,31,27.10
2013,07,16,11,32,27.20
2013,07,16,11,33,27.20
2013,07,16,11,34,27.20
2013,07,16,11,35,27.30
2013,07,16,11,36,27.30
2013,07,16,11,37,27.40
2013,07,16,11,38,27.50
2013,07,16,11,39,27.60
2013,07,16,11,40,27.60
2013,07,16,11,41,27.60
2013,07,16,11,42,27.70
2013,07,16,11,43,27.70
2013,07,16,11,44,27.70
2013,07,16,11,45,27.80
2013,07,16,11,46,27.80
2013,07,16,11,47,27.80
2013,07,16,11,48,27.80
2013,07,16,11,49,27.70
2013,07,16,11,50,27.70
2013,07,16,11,51,27.70
2013,07,16,11,52,27.70
2013,07,16,11,53,27.70
2013,07,16,11,54,27.80
2013,07,16,11,55,27.80
2013,07,16,11,56,27.90
2013,07,16,11,57,28.00
2013,07,16,11,58,28.10
2013,07,16,11,59,28.20
2013,07,16,12,00,28.30
2013,07,16,12,01,28.30
2013,07,16,12,02,28.30
2013,07,16,12,03,28.20
2013,07,16,12,04,28.00
2013,07,16,12,05,27.90
2013,07,16,12,06,27.80
2013,07,16,12,07,27.70
2013,07,16,12,08,27.70
2013,07,16,12,09,27.80
2013,07,16,12,10,27.90
2013,07,16,12,11,27.90
2013,07,16,12,12,28.00
2013,07,16,12,13,28.00
2013,07,16,12,14,28.00
2013,07,16,12,15,28.10
2013,07,16,12,16,28.10
2013,07,16,12,17,28.30
2013,07,16,12,18,28.40
2013,07,16,12,19,28.50
2013,07,16,12,20,28.50
2013,07,16,12,21,28.60
2013,07,16,12,22,28.60
2013,07,16,12,23,28.70
2013,07,16,12,24,28.70
2013,07,16,12,25,28.70
2013,07,16,12,26,28.70
2013,07,16,12,27,28.60
2013,07,16,12,28,28.60
2013,07,16,12,29,28.50
2013,07,16,12,30,28.40
2013,07,16,12,31,28.30
2013,07,16,12,32,28.20
2013,07,16,12,33,28.20
2013,07,16,12,34,28.20
2013,07,16,12,35,28.20
2013,07,16,12,36,28.20
2013,07,16,12,37,28.20
2013,07,16,12,38,28.20
2013,07,16,12,39,28.30
2013,07,16,12,40,28.30
2013,07,16,12,41,28.40
2013,07,16,12,42,28.40
2013,07,16,12,43,28.40
2013,07,16,12,44,28.40
2013,07,16,12,45,28.40
2013,07,16,12,46,28.40
2013,07,16,12,47,28.50
2013,07,16,12,48,28.50
2013,07,16,12,49,28.50
2013,07,16,12,50,28.40
2013,07,16,12,51,28.40
2013,07,16,12,52,28.40
2013,07,16,12,53,28.40
2013,07,16,12,54,28.40
2013,07,16,12,55,28.40
2013,07,16,12,56,28.30
2013,07,16,12,57,28.20
2013,07,16,12,58,28.10
2013,07,16,12,59,28.10
2013,07,16,13,00,28.10
2013,07,16,13,01,28.10
2013,07,16,13,02,28.10
2013,07,16,13,03,28.10
2013,07,16,13,04,28.10
2013,07,16,13,05,28.10
2013,07,16,13,06,28.20
2013,07,16,13,07,28.20
2013,07,16,13,08,28.20
2013,07,16,13,09,28.30
2013,07,16,13,10,28.20
2013,07,16,13,11,28.20
2013,07,16,13,12,28.30
2013,07,16,13,13,28.30
2013,07,16,13,14,28.20
2013,07,16,13,15,28.20
2013,07,16,13,16,28.10
2013,07,16,13,17,28.00
2013,07,16,13,18,28.00
2013,07,16,13,19,28.00
2013,07,16,13,20,28.00
2013,07,16,13,21,28.10
2013,07,16,13,22,28.10
2013,07,16,13,23,28.10
2013,07,16,13,24,28.10
2013,07,16,13,25,28.10
2013,07,16,13,26,28.20
2013,07,16,13,27,28.30
2013,07,16,13,28,28.30
2013,07,16,13,29,28.40
2013,07,16,13,30,28.40
2013,07,16,13,31,28.40
2013,07,16,13,32,28.50
2013,07,16,13,33,28.50
2013,07,16,13,34,28.50
2013,07,16,13,35,28.50
2013,07,16,13,36,28.50
2013,07,16,13,37,28.50
2013,07,16,13,38,28.40
2013,07,16,13,39,28.40
2013,07,16,13,40,28.30
2013,07,16,13,41,28.30
2013,07,16,13,42,28.20
2013,07,16,13,43,28.20
2013,07,16,13,44,28.20
2013,07,16,13,45,28.20
2013,07,16,13,46,28.30
2013,07,16,13,47,28.30
2013,07,16,13,48,28.30
2013,07,16,13,49,28.30
2013,07,16,13,50,28.30
2013,07,16,13,51,28.30
2013,07,16,13,52,28.40
2013,07,16,13,53,28.40
2013,07,16,13,54,28.50
2013,07,16,13,55,28.50
2013,07,16,13,56,28.50
2013,07,16,13,57,28.50
2013,07,16,13,58,28.40
2013,07,16,13,59,28.40
2013,07,16,14,00,28.50
2013,07,16,14,01,28.50
2013,07,16,14,02,28.50
2013,07,16,14,03,28.50
2013,07,16,14,04,28.40
2013,07,16,14,05,28.40
2013,07,16,14,06,28.30
2013,07,16,14,07,28.30
2013,07,16,14,08,28.40
2013,07,16,14,09,28.30
2013,07,16,14,10,28.30
2013,07,16,14,11,28.30
2013,07,16,14,12,28.30
2013,07,16,14,13,28.30
2013,07,16,14,14,28.30
2013,07,16,14,15,28.30
2013,07,16,14,16,28.30
2013,07,16,14,17,28.30
2013,07,16,14,18,28.20
2013,07,16,14,19,28.00
2013,07,16,14,20,27.80
2013,07,16,14,21,27.60
2013,07,16,14,22,27.30
2013,07,16,14,23,27.00
2013,07,16,14,24,26.80
2013,07,16,14,25,26.70
2013,07,16,14,26,26.60
2013,07,16,14,27,26.40
2013,07,16,14,28,26.30
2013,07,16,14,29,26.10
2013,07,16,14,30,25.80
2013,07,16,14,31,25.50
2013,07,16,14,32,25.30
2013,07,16,14,33,25.20
2013,07,16,14,34,25.10
2013,07,16,14,35,25.00
2013,07,16,14,36,24.90
2013,07,16,14,37,24.70
2013,07,16,14,38,24.60
2013,07,16,14,39,24.40
2013,07,16,14,40,24.20
2013,07,16,14,41,24.00
2013,07,16,14,42,23.90
2013,07,16,14,43,23.80
2013,07,16,14,44,23.70
2013,07,16,14,45,23.60
2013,07,16,14,46,23.50
2013,07,16,14,47,23.40
2013,07,16,14,48,23.30
2013,07,16,14,49,23.20
2013,07,16,14,50,23.10
2013,07,16,14,51,23.00
2013,07,16,14,52,23.00
2013,07,16,14,53,22.90
2013,07,16,14,54,22.80
2013,07,16,14,55,22.80
2013,07,16,14,56,22.80
2013,07,16,14,57,22.80
2013,07,16,14,58,22.80
2013,07,16,14,59,22.80
2013,07,16,15,00,22.70
2013,07,16,15,01,22.70
2013,07,16,15,02,22.70
2013,07,16,15,03,22.70
2013,07,16,15,04,22.70
2013,07,16,15,05,22.70
2013,07,16,15,06,22.80
2013,07,16,15,07,22.80
2013,07,16,15,08,22.90
2013,07,16,15,09,23.00
2013,07,16,15,10,23.00
2013,07,16,15,11,23.10
2013,07,16,15,12,23.20
2013,07,16,15,13,23.30
2013,07,16,15,14,23.30
2013,07,16,15,15,23.50
2013,07,16,15,16,23.60
2013,07,16,15,17,23.80
2013,07,16,15,18,24.00
2013,07,16,15,19,24.20
2013,07,16,15,20,24.40
2013,07,16,15,21,24.50
2013,07,16,15,22,24.60
2013,07,16,15,23,24.80
2013,07,16,15,24,24.90
2013,07,16,15,25,25.00
2013,07,16,15,26,25.20
2013,07,16,15,27,25.30
2013,07,16,15,28,25.40
2013,07,16,15,29,25.60
2013,07,16,15,30,25.70
2013,07,16,15,31,25.80
2013,07,16,15,32,25.80
2013,07,16,15,33,25.90
2013,07,16,15,34,26.00
2013,07,16,15,35,25.90
2013,07,16,15,36,25.80
2013,07,16,15,37,25.80
2013,07,16,15,38,25.70
2013,07,16,15,39,25.70
2013,07,16,15,40,25.70
2013,07,16,15,41,25.70
2013,07,16,15,42,25.80
2013,07,16,15,43,25.80
2013,07,16,15,44,25.80
2013,07,16,15,45,25.80
2013,07,16,15,46,25.90
2013,07,16,15,47,26.00
2013,07,16,15,48,26.10
2013,07,16,15,49,26.20
2013,07,16,15,50,26.30
2013,07,16,15,51,26.40
2013,07,16,15,52,26.50
2013,07,16,15,53,26.60
2013,07,16,15,54,26.60
2013,07,16,15,55,26.70
2013,07,16,15,56,26.80
2013,07,16,15,57,26.80
2013,07,16,15,58,26.90
2013,07,16,15,59,26.90
2013,07,16,16,00,27.00
2013,07,16,16,01,27.10
2013,07,16,16,02,27.10
2013,07,16,16,03,27.10
2013,07,16,16,04,27.00
2013,07,16,16,05,26.80
2013,07,16,16,06,26.70
2013,07,16,16,07,26.70
2013,07,16,16,08,26.70
2013,07,16,16,09,26.70
2013,07,16,16,10,26.70
2013,07,16,16,11,26.70
2013,07,16,16,12,26.80
2013,07,16,16,13,26.80
2013,07,16,16,14,26.80
2013,07,16,16,15,26.80
2013,07,16,16,16,26.70
2013,07,16,16,17,26.50
2013,07,16,16,18,26.40
2013,07,16,16,19,26.30
2013,07,16,16,20,26.10
2013,07,16,16,21,26.00
2013,07,16,16,22,25.90
2013,07,16,16,23,25.80
2013,07,16,16,24,25.70
2013,07,16,16,25,25.70
2013,07,16,16,26,25.70
2013,07,16,16,27,25.70
2013,07,16,16,28,25.70
2013,07,16,16,29,25.70
2013,07,16,16,30,25.70
2013,07,16,16,31,25.60
2013,07,16,16,32,25.60
2013,07,16,16,33,25.60
2013,07,16,16,34,25.60
2013,07,16,16,35,25.70
2013,07,16,16,36,25.70
2013,07,16,16,37,25.70
2013,07,16,16,38,25.70
2013,07,16,16,39,25.70
2013,07,16,16,40,25.70
2013,07,16,16,41,25.70
2013,07,16,16,42,25.80
2013,07,16,16,43,25.80
2013,07,16,16,44,25.80
2013,07,16,16,45,25.90
2013,07,16,16,46,26.00
2013,07,16,16,47,26.10
2013,07,16,16,48,26.20
2013,07,16,16,49,26.40
2013,07,16,16,50,26.50
2013,07,16,16,51,26.60
2013,07,16,16,52,26.60
2013,07,16,16,53,26.70
2013,07,16,16,54,26.70
2013,07,16,16,55,26.80
2013,07,16,16,56,26.70
2013,07,16,16,57,26.70
2013,07,16,16,58,26.70
2013,07,16,16,59,26.60
2013,07,16,17,00,26.60
2013,07,16,17,01,26.50
2013,07,16,17,02,26.50
2013,07,16,17,03,26.50
2013,07,16,17,04,26.50
2013,07,16,17,05,26.50
2013,07,16,17,06,26.50
2013,07,16,17,07,26.40
2013,07,16,17,08,26.20
2013,07,16,17,09,26.10
2013,07,16,17,10,25.90
2013,07,16,17,11,25.60
2013,07,16,17,12,25.40
2013,07,16,17,13,25.20
2013,07,16,17,14,24.80
2013,07,16,17,15,24.50
2013,07,16,17,16,24.30
2013,07,16,17,17,24.10
2013,07,16,17,18,23.80
2013,07,16,17,19,23.70